Back to catalog

NOAA 16 DEB

AliveSSO
NORAD 41429·DEBRIS·🇺🇸 United States

Launched Sep 21, 2000 from Vandenberg Space Force Base

Loading…

Next Passes (next 24 hours)

TLE

FreshSource: Space-Track

Epoch: Sep 13, 2026, 11:11 UTC

1 41429U 00055LJ  26256.46597340  .00002399  00000-0  93500-3 0  9992
2 41429  98.7062 342.9846 0017318  89.0624 271.2543 14.30569508545716

Track NOAA 16 DEB in real time with AllMySat

Download on the App Store